Location: *
(50.3194°N, 7.1067°E)
Time: 22:56:07
(UTC+00:00)

SL-16 R/B - Pass Details

Date: 22 September 2019
Orbit: 840 x 849 km, 71.0° (Epoch: 13 October)

Event Time Altitude Azimuth Distance (km) Brightness Sun altitude
Rises 19:14:22 0° 330° (NNW) 3,417 6.2 -17.0°
Reaches altitude 10° 19:16:50 10° 330° (NNW) 2,480 5.4 -17.4°
Maximum altitude 19:22:32 86° 242° (WSW) 856 2.2 -18.2°
Enters shadow 19:26:07 24° 155° (SSE) 1,695 3.3 -18.7°
